User: anonymous   Login
Location: Unspecified
(0.0000°N, 0.0000°E)
Time: 18:36:59
(UTC+02:00)
Language:

ARIANE 5 R/B - Orbit

View from above orbital plane
View from above orbital plane
View from above satellite
View from above satellite

Ground track
Ground track

The orbit data is extracted from the following two-line orbital elements,

1 29646U 06054D   18140.81594459 +.00005634 +00000-0 +78759-3 0  9998
2 29646 002.5354 160.7143 7096478 280.3031 012.9887 02.53118740100263
Epoch (UTC): 20 May 2018 19:34:57
Eccentricity: 0.7096478
inclination: 2.5354°
perigee height: 225 km
apogee height: 32504 km
right ascension of ascending node: 160.7143°
argument of perigee: 280.3031°
revolutions per day: 2.53118740
mean anomaly at epoch: 12.9887°
orbit number at epoch: 10026

The dashed part of the orbit path shows where the satellite is in the earth's shadow,  

DLR